Lid_Strength_Index
-0 0 1 0 1 1 1 1 -0 0 -1 -1 -1 -1 -1 -0 -0 -0 0 1 1 1
-0 -0 0 -0 -0 0 0 0 -0 -0 0 -1 -0 -0 -1 -0 0 0 0 1 1 1
-1 -1 -1 -1 -0 -0 -0 0 0 -0 -0 -0 -1 -1 -0 0 -0 0 0 0 0 1
-0 -1 -1 -0 -0 -0 -0 -1 0 1 0 0 -0 -0 -0 -0 0 1 1 0 1 1
-0 -1 -0 -0 -0 -1 -0 -0 -0 0 0 0 0 -0 0 0 0 1 1 1 1 1
-0 -0 -0 -0 -0 -1 -0 -0 -0 -0 0 1 1 1 0 0 0 0 0 0 0 1
-0 -0 -0 -0 -1 -1 -1 -0 -0 -0 -0 0 0 0 0 0 0 0 0 -0 -0 -0
-0 -0 -0 -0 -1 -1 -1 -0 0 -0 -0 -1 -0 0 -0 -0 -0 -0 -0 -0 -0 -1
-0 -0 -0 -0 -0 -0 -0 -0 0 0 -0 -0 0 7 5 1 -0 -0 -0 0 -0 -1
0 0 0 -0 -0 -0 -0 -1 -1 -1 -1 -0 -1 7 6 4 -1 -0 -0 -0 -0 -0
1 0 0 -0 -0 -0 -0 -0 -0 -0 -1 -1 1 8 7 4 -1 -1 -1 -1 -1 -1
0 0 0 0 0 -0 -0 -0 -0 -0 -0 -0 -0 8 9 4 -1 -0 -1 -0 -0 -0
-0 0 0 -0 -0 -0 -0 -0 -0 -0 -1 1 -1 9 9 6 2 1 2 2 2 8
-0 -0 -0 -0 -0 -0 -0 -0 -0 -0 -1 -1 -0 1 10 10 2 2 3 3 3 4